[[{"header":{"parameterUnit":"m.s-1","parameterCategory":2,"la1":30.2991,"la2":30.254,"lo1":-89.0895,"lo2":-89.0444,"dy":0.0017,"dx":0.0017,"nx":28,"ny":28,"refTime":"2024-04-20T21:00:00:Z","depth":"0","parameterNumber":2,"parameterNumberName":"U-component_of_CURRENTS"},"data":[0,0,0,0,0,0,0,0,0,0,0,0,0,0,0,0,0,0,0,0,0,0,0,0,0,0,0,0,0,0,0,0,0,0,0,0,0,0,0,0,0,0,0,0,0,0,0,0,0,0,0,0,0,0,0,0,0,0,0.1575,0.1575,0,0.1553,0.1553,0.1553,0.1526,0.1526,0.1526,0.1525,0.1485,0.1484,0.1483,0,0,0,0,0,0,0,0,0,0,0,0,0,0.1587,0.1587,0.1575,0.1575,0.1574,0.1553,0.1553,0.1552,0.1526,0.1526,0.1526,0.1525,0.1485,0.1484,0.1483,0,0,0,0,0,0,0,0,0,0,0,0,0,0.1574,0.1587,0.1575,0.156,0.1559,0.1553,0.1553,0.1552,0.1526,0.1526,0.1526,0.1525,0.1486,0.1484,0.1483,0.1483,0,0,0.1479,0.1479,0,0,0,0,0,0,0,0,0.1575,0.1573,0.1562,0.1561,0.156,0.1543,0.1543,0.1529,0.1526,0.1537,0.1525,0.1525,0.1504,0.1501,0.1496,0.1481,0.148,0.1479,0.1479,0.1478,0.1478,0,0,0,0,0,0,0,0.1576,0.1574,0.1565,0.1562,0.1561,0.1553,0.155,0.154,0.1521,0.1536,0.1534,0.1535,0.1503,0.1497,0.1495,0.1479,0.1479,0.1478,0.1477,0.1477,0.1423,0.1423,0,0,0,0,0,0,0.1582,0.1575,0.1565,0.1564,0.1568,0.1553,0.155,0.1548,0.1522,0.1518,0.1535,0.1534,0.15,0.1496,0.1493,0.1488,0.1478,0.1477,0.1476,0.1424,0.1423,0.1422,0,0,0,0,0,0,0.1583,0.1582,0.1566,0.157,0.1568,0.1553,0.1551,0.1548,0.154,0.1522,0.1517,0.1531,0.1499,0.1495,0.1478,0.1486,0.1476,0.1475,0.1425,0.1424,0.1423,0.148,0,0,0,0,0,0,0.1583,0.1582,0.1585,0.1571,0.1568,0.1567,0.1551,0.1547,0.1542,0.154,0.1517,0.1513,0.1499,0.148,0.1477,0.1484,0.1474,0.1426,0.1424,0.1423,0.1479,0.1481,0.1483,0,0,0,0,0,0.1584,0.1596,0.1585,0.1584,0.1572,0.1568,0.1566,0.1553,0.1542,0.1544,0.1521,0.1514,0.1469,0.1479,0.1475,0.1483,0.1426,0.1425,0.1423,0.1478,0.148,0.1482,0,0,0,0,0,0,0.1616,0.1594,0.1582,0.159,0.1579,0.1564,0.157,0.1555,0.1539,0.1537,0.1511,0.1506,0.1492,0.1473,0.1484,0.1458,0.1444,0.1442,0.1487,0.1489,0.1491,0.155,0.1473,0,0,0,0,0,0.1622,0.1617,0.1599,0.1606,0.1603,0.1584,0.1581,0.1571,0.1556,0.1548,0.1529,0.1504,0.1483,0.1476,0.1455,0.1448,0.1498,0.1445,0.1447,0.1449,0.1491,0.1548,0.1562,0.1417,0.1418,0.1418,0,0,0.1639,0.1626,0.1625,0.1612,0.1603,0.1604,0.1581,0.1583,0.1585,0.1547,0.1543,0.1513,0.148,0.1469,0.1461,0.1457,0.1519,0.1447,0.1449,0.1492,0.1549,0.1563,0.1577,0.1416,0.1417,0.1417,0,0,0.1667,0.1656,0.1657,0.165,0.1638,0.1627,0.1627,0.161,0.1604,0.1597,0.1562,0.1538,0.1513,0.1489,0.1474,0.1472,0.1525,0.1458,0.1525,0.1579,0.1593,0.1606,0.1719,0.1741,0.1462,0.1462,0.1462,0,0.1691,0.1683,0.1661,0.1663,0.1662,0.1637,0.1644,0.1639,0.1618,0.1624,0.1604,0.1572,0.1526,0.1524,0.1519,0.1481,0.1554,0.1522,0.1588,0.1601,0.1614,0.1726,0.175,0.1465,0.1465,0.1464,0.1464,0,0.1708,0.171,0.1716,0.1701,0.1699,0.1705,0.1692,0.1694,0.1682,0.1678,0.168,0.1631,0.1622,0.1585,0.1556,0.1605,0.1645,0.1586,0.1597,0.1633,0.1748,0.1772,0.1469,0.1468,0.1467,0.1466,0,0,0.1756,0.1729,0.1736,0.173,0.172,0.172,0.1735,0.1741,0.1762,0.1751,0.1787,0.1732,0.173,0.1713,0.1667,0.1704,0.1833,0.1701,0.1702,0.1844,0.2033,0.2032,0.2059,0.1805,0.1809,0.1812,0.2091,0,0.1779,0.1779,0.1763,0.1777,0.1777,0.1767,0.1783,0.1791,0.1798,0.183,0.1813,0.182,0.1772,0.177,0.1808,0.1821,0.1897,0.1768,0.1953,0.196,0.1978,0.2085,0.199,0.2229,0.2115,0.2119,0.2122,0,0.1809,0.1799,0.1808,0.1805,0.1807,0.1813,0.1841,0.1854,0.1896,0.191,0.1947,0.1943,0.1999,0.1932,0.207,0.2006,0.2048,0.2063,0.2072,0.2077,0.2003,0.2164,0.2278,0.2166,0.216,0.2157,0.2154,0,0.1845,0.1841,0.1842,0.1841,0.1834,0.1845,0.185,0.1883,0.1905,0.1975,0.2013,0.2086,0.2121,0.2202,0.2242,0.2184,0.2412,0.2314,0.2371,0.2374,0.2332,0.2324,0.2384,0.2436,0.2435,0.2435,0.2434,0,0.1881,0.1885,0.1856,0.1859,0.1867,0.1869,0.1902,0.1921,0.1976,0.2017,0.2062,0.2118,0.2192,0.2305,0.2344,0.2477,0.2507,0.2451,0.2455,0.2348,0.2338,0.2266,0.218,0.2445,0.2443,0.2441,0.2439,0,0.1917,0.1903,0.1896,0.1884,0.1881,0.189,0.1908,0.1939,0.1998,0.2063,0.2094,0.2198,0.2351,0.2445,0.2583,0.26,0.2634,0.2728,0.2635,0.2622,0.2536,0.2455,0.2513,0.2458,0.2872,0.2874,0.2875,0,0.1924,0.1928,0.1903,0.1897,0.1885,0.1896,0.1906,0.1945,0.1975,0.2097,0.213,0.2298,0.2386,0.2643,0.2722,0.2879,0.2717,0.2861,0.2691,0.2584,0.2497,0.2369,0.2307,0.2685,0.2685,0.2685,0.2684,0,0.1933,0.1927,0.1917,0.1902,0.1898,0.1895,0.191,0.1934,0.1997,0.2059,0.2158,0.2245,0.2481,0.259,0.2794,0.2854,0.2703,0.2861,0.2759,0.2394,0.2251,0.218,0.2487,0.2683,0.2683,0.2683,0.2683,0.2683,0.193,0.1918,0.1908,0.189,0.1888,0.1882,0.1868,0.1904,0.1948,0.2016,0.2132,0.2223,0.2405,0.2668,0.273,0.2747,0.2705,0.2656,0.2595,0.2498,0.2345,0.2688,0.2852,0.2853,0.2853,0.2854,0.2855,0,0.1887,0.1886,0.189,0.1858,0.1841,0.185,0.1855,0.1835,0.1854,0.1958,0.2035,0.2159,0.2295,0.2423,0.2528,0.2471,0.2373,0.2406,0.2175,0.2147,0.2479,0.2365,0.2415,0.2415,0.2415,0.2415,0.2415,0.2415,0.1865,0.1847,0.1847,0.1808,0.1789,0.1742,0.1727,0.1716,0.1757,0.1793,0.1831,0.1912,0.2053,0.2173,0.2167,0.2158,0.1984,0.1934,0.1924,0.2094,0.211,0.2125,0.1997,0.197,0.1969,0.1523,0.1519,0.1516]},{"header":{"parameterUnit":"m.s-1","parameterCategory":2,"la1":30.2991,"la2":30.254,"lo1":-89.0895,"lo2":-89.0444,"dy":0.0017,"dx":0.0017,"nx":28,"ny":28,"refTime":"2024-04-20T21:00:00:Z","depth":"0","parameterNumber":3,"parameterNumberName":"V-component_of_CURRENTS"},"data":[0,0,0,0,0,0,0,0,0,0,0,0,0,0,0,0,0,0,0,0,0,0,0,0,0,0,0,0,0,0,0,0,0,0,0,0,0,0,0,0,0,0,0,0,0,0,0,0,0,0,0,0,0,0,0,0,0,0,0.1134,0.1133,0,0.1061,0.106,0.1059,0.1033,0.1033,0.1033,0.1033,0.0969,0.0967,0.0965,0,0,0,0,0,0,0,0,0,0,0,0,0,0.1275,0.1272,0.1134,0.1133,0.1132,0.1061,0.106,0.1059,0.1033,0.1033,0.1033,0.1033,0.097,0.0967,0.0965,0,0,0,0,0,0,0,0,0,0,0,0,0,0.121,0.1271,0.1134,0.1109,0.1106,0.1061,0.106,0.1059,0.1033,0.1033,0.1033,0.1033,0.097,0.0968,0.0965,0.0944,0,0,0.0956,0.0955,0,0,0,0,0,0,0,0,0.1214,0.1205,0.1114,0.1111,0.1107,0.1055,0.1086,0.102,0.1032,0.1062,0.1033,0.1033,0.0998,0.0993,0.098,0.0941,0.0938,0.0956,0.0955,0.0953,0.0953,0,0,0,0,0,0,0,0.1218,0.1208,0.1106,0.1113,0.1109,0.111,0.1101,0.1074,0.1031,0.1059,0.1057,0.1047,0.0996,0.0983,0.0978,0.0937,0.0956,0.0954,0.0952,0.0951,0.0839,0.0838,0,0,0,0,0,0,0.1223,0.1212,0.1108,0.1104,0.1161,0.1107,0.1097,0.1073,0.103,0.1024,0.1047,0.1046,0.0987,0.0982,0.0976,0.0931,0.0953,0.0951,0.0949,0.084,0.0839,0.0837,0,0,0,0,0,0,0.1226,0.1214,0.1111,0.1157,0.1143,0.1104,0.1077,0.1071,0.1057,0.1021,0.1014,0.1039,0.0987,0.098,0.0943,0.0929,0.095,0.0947,0.0842,0.084,0.0838,0.0851,0,0,0,0,0,0,0.123,0.1215,0.121,0.1156,0.1141,0.1087,0.1076,0.1069,0.105,0.1048,0.1012,0.1006,0.0987,0.0948,0.0941,0.0925,0.0945,0.0844,0.0841,0.0839,0.0853,0.085,0.0848,0,0,0,0,0,0.1235,0.1228,0.121,0.1198,0.1131,0.1087,0.108,0.1054,0.105,0.1043,0.1012,0.1008,0.0927,0.0944,0.0937,0.092,0.0845,0.0842,0.0839,0.0854,0.0851,0.0848,0,0,0,0,0,0,0.1283,0.1222,0.1202,0.1175,0.1135,0.1082,0.1074,0.1055,0.1025,0.1024,0.0994,0.0985,0.0945,0.0928,0.0948,0.0877,0.0883,0.0879,0.0897,0.0894,0.0892,0.0912,0.0943,0,0,0,0,0,0.1291,0.1267,0.1209,0.1186,0.1166,0.112,0.1103,0.1081,0.1042,0.103,0.1,0.0964,0.0925,0.0908,0.0873,0.084,0.0835,0.0821,0.0819,0.0817,0.0826,0.08,0.0798,0.0828,0.0828,0.0828,0,0,0.13,0.1265,0.125,0.1195,0.116,0.1127,0.111,0.1079,0.1053,0.1027,0.0989,0.0956,0.0913,0.0871,0.0852,0.0857,0.0805,0.0813,0.0813,0.0822,0.0797,0.0795,0.0792,0.0826,0.0826,0.0826,0,0,0.1305,0.1274,0.1256,0.1223,0.1174,0.114,0.1132,0.1076,0.1057,0.1013,0.0983,0.094,0.0888,0.0851,0.0826,0.0789,0.0792,0.0778,0.0786,0.0761,0.0759,0.0757,0.0751,0.0749,0.0779,0.0779,0.0779,0,0.1326,0.1281,0.1246,0.1219,0.1193,0.1146,0.112,0.1088,0.1029,0.1016,0.1003,0.0914,0.0875,0.0824,0.0807,0.0785,0.0785,0.0805,0.0761,0.0759,0.0757,0.0751,0.0748,0.0779,0.0779,0.0779,0.0779,0,0.1302,0.1277,0.1262,0.1208,0.1182,0.115,0.1098,0.1077,0.1047,0.1013,0.0962,0.0902,0.086,0.0827,0.0805,0.0766,0.0775,0.0763,0.0777,0.0756,0.0749,0.0746,0.078,0.078,0.0779,0.0779,0,0,0.1321,0.1261,0.1255,0.1238,0.1174,0.115,0.1115,0.1071,0.1063,0.0999,0.0983,0.0891,0.0875,0.0845,0.0806,0.0773,0.0747,0.0769,0.0767,0.0779,0.0715,0.0698,0.0694,0.0738,0.0737,0.0737,0.0719,0,0.1312,0.1273,0.1242,0.1207,0.118,0.1144,0.1122,0.1085,0.105,0.1027,0.0962,0.0925,0.0877,0.0863,0.082,0.0776,0.074,0.0755,0.072,0.0719,0.072,0.0689,0.0673,0.0653,0.0716,0.0715,0.0715,0,0.1293,0.1271,0.1241,0.1214,0.1202,0.1184,0.1158,0.1133,0.1094,0.1076,0.1032,0.0988,0.0931,0.0892,0.0808,0.0828,0.0773,0.0728,0.0726,0.0707,0.0696,0.0681,0.0645,0.0512,0.071,0.0711,0.0711,0,0.1318,0.1273,0.1256,0.124,0.12,0.1201,0.1186,0.1153,0.1151,0.1116,0.112,0.1041,0.102,0.0937,0.0846,0.0834,0.0764,0.0734,0.066,0.066,0.0635,0.0633,0.048,0.0661,0.0661,0.0661,0.0661,0,0.132,0.1307,0.1272,0.1265,0.1261,0.1233,0.124,0.1221,0.1215,0.1227,0.1157,0.1154,0.1032,0.0975,0.0878,0.0776,0.079,0.0661,0.0648,0.0638,0.0636,0.0512,0.0466,0.066,0.066,0.066,0.066,0,0.1345,0.1321,0.1302,0.1276,0.1273,0.1274,0.1282,0.1291,0.129,0.1309,0.1306,0.1251,0.1184,0.106,0.0934,0.0829,0.0658,0.0675,0.0682,0.0668,0.0461,0.0418,0.0317,0.0277,0.0587,0.0586,0.0585,0,0.1342,0.1339,0.1316,0.1313,0.1304,0.1309,0.132,0.1325,0.1344,0.137,0.1385,0.1334,0.1312,0.1132,0.0925,0.0755,0.065,0.0617,0.0564,0.0442,0.0384,0.0374,0.0347,0.054,0.0539,0.0539,0.0538,0,0.1338,0.134,0.1329,0.1327,0.1336,0.1354,0.1376,0.1408,0.1435,0.1472,0.151,0.1506,0.1336,0.1159,0.092,0.078,0.054,0.0596,0.0459,0.0323,0.0314,0.0273,0.0575,0.0532,0.0533,0.0533,0.0533,0.0534,0.1328,0.1329,0.1325,0.1328,0.1343,0.1388,0.1418,0.1463,0.1525,0.1595,0.1609,0.1634,0.1372,0.104,0.0844,0.0444,0.0484,0.0318,0.0276,0.0277,0.0226,0.0523,0.0469,0.0469,0.0469,0.0469,0.047,0,0.1289,0.1312,0.132,0.1331,0.1352,0.1371,0.1441,0.1487,0.1568,0.1661,0.1722,0.1603,0.1292,0.0949,0.0424,0.0165,0.0097,0.003,-0.0012,-0.0024,0.0215,0.0197,0.0095,0.0095,0.0096,0.0096,0.0096,0.0096,0.1271,0.1277,0.1298,0.1324,0.1345,0.1393,0.1441,0.1528,0.1608,0.1692,0.1705,0.1715,0.1415,0.057,-0.0019,-0.0145,-0.0282,-0.0299,-0.0357,-0.0236,-0.0214,-0.0192,-0.0224,-0.0413,-0.0413,-0.0577,-0.0579,-0.058]}],[{"header":{"parameterUnit":"m.s-1","parameterCategory":2,"la1":30.2991,"la2":30.254,"lo1":-89.0895,"lo2":-89.0444,"dy":0.0017,"dx":0.0017,"nx":28,"ny":28,"refTime":"2024-04-20T21:00:00:Z","depth":"2","parameterNumber":2,"parameterNumberName":"U-component_of_CURRENTS"},"data":[0,0,0,0,0,0,0,0,0,0,0,0,0,0,0,0,0,0,0,0,0,0,0,0,0,0,0,0,0,0,0,0,0,0,0,0,0,0,0,0,0,0,0,0,0,0,0,0,0,0,0,0,0,0,0,0,0,0,0.1145,0.1144,0,0.1041,0.104,0.1039,0.1052,0.1054,0.1056,0.1058,0.1046,0.1044,0.1042,0,0,0,0,0,0,0,0,0,0,0,0,0,0.1149,0.115,0.1145,0.1144,0.1143,0.1042,0.104,0.1039,0.1052,0.1054,0.1057,0.1059,0.1047,0.1045,0.1042,0,0,0,0,0,0,0,0,0,0,0,0,0,0.1106,0.115,0.1145,0.1138,0.1137,0.1042,0.104,0.1038,0.1052,0.1054,0.1057,0.106,0.1048,0.1045,0.1042,0.0969,0,0,0.1033,0.1031,0,0,0,0,0,0,0,0,0.1108,0.1106,0.114,0.1138,0.1137,0.1064,0.1037,0.102,0.1051,0.1083,0.1058,0.1061,0.1059,0.1056,0.1027,0.0968,0.0968,0.1032,0.1031,0.1029,0.1029,0,0,0,0,0,0,0,0.1112,0.1109,0.1103,0.1139,0.1137,0.107,0.1068,0.1032,0.1058,0.108,0.1081,0.1071,0.1059,0.103,0.1027,0.0968,0.1033,0.103,0.1028,0.1027,0.0916,0.0915,0,0,0,0,0,0,0.1135,0.1113,0.1106,0.11,0.113,0.1068,0.1067,0.1083,0.1056,0.1054,0.1068,0.1072,0.1034,0.1031,0.1027,0.1017,0.1029,0.1027,0.1025,0.0918,0.0916,0.0915,0,0,0,0,0,0,0.1136,0.1136,0.111,0.1103,0.1095,0.1067,0.1084,0.108,0.1083,0.1047,0.1047,0.1081,0.1036,0.1031,0.1001,0.1015,0.1025,0.1022,0.0919,0.0917,0.0916,0.0948,0,0,0,0,0,0,0.1137,0.1138,0.1128,0.1106,0.1097,0.1078,0.1082,0.1076,0.1071,0.1076,0.1056,0.1056,0.1037,0.1006,0.0998,0.1011,0.102,0.092,0.0918,0.0916,0.0949,0.0948,0.0947,0,0,0,0,0,0.1138,0.1121,0.1129,0.1126,0.1096,0.1078,0.1067,0.1052,0.107,0.1067,0.1044,0.1059,0.0988,0.1001,0.0993,0.1006,0.0921,0.0919,0.0916,0.0949,0.0948,0.0947,0,0,0,0,0,0,0.1124,0.112,0.1129,0.1116,0.111,0.1081,0.1064,0.1064,0.1039,0.1047,0.1031,0.1027,0.1005,0.0989,0.1005,0.0964,0.0962,0.0957,0.0989,0.0988,0.0988,0.1049,0.1018,0,0,0,0,0,0.1115,0.1114,0.1105,0.1104,0.1103,0.1091,0.1073,0.1072,0.1054,0.1048,0.1045,0.1021,0.0977,0.0975,0.0937,0.091,0.0943,0.0914,0.0913,0.0913,0.0955,0.1012,0.1022,0.0907,0.0907,0.0907,0,0,0.1134,0.1111,0.1126,0.1101,0.1099,0.1082,0.1089,0.1081,0.1069,0.1047,0.1042,0.1016,0.0965,0.0933,0.0925,0.0932,0.0951,0.091,0.0911,0.0953,0.1011,0.1023,0.1034,0.0905,0.0905,0.0905,0,0,0.1123,0.1138,0.1116,0.1115,0.1093,0.1079,0.109,0.1083,0.1085,0.1059,0.1036,0.1024,0.0977,0.0948,0.092,0.0891,0.0938,0.0884,0.0944,0.0997,0.101,0.1021,0.1041,0.1054,0.0894,0.0894,0.0894,0,0.1124,0.1118,0.1109,0.108,0.1092,0.1091,0.1089,0.1064,0.1051,0.1055,0.1071,0.1017,0.0983,0.0938,0.0938,0.0896,0.0938,0.0953,0.1004,0.1015,0.1026,0.1045,0.1059,0.0896,0.0895,0.0895,0.0895,0,0.1101,0.1101,0.1101,0.1076,0.1069,0.1086,0.1067,0.1078,0.1092,0.1068,0.1063,0.1023,0.1018,0.0985,0.0959,0.1,0.1005,0.0992,0.1021,0.1041,0.1057,0.1071,0.0897,0.0897,0.0897,0.0896,0,0,0.1102,0.1089,0.1099,0.1096,0.109,0.1083,0.1084,0.1077,0.1096,0.108,0.1121,0.1045,0.1074,0.1048,0.1022,0.1067,0.1156,0.1091,0.1093,0.1139,0.1283,0.1223,0.1232,0.118,0.1184,0.1186,0.1251,0,0.1098,0.1078,0.1069,0.1074,0.1072,0.11,0.1078,0.1064,0.1105,0.1137,0.1106,0.111,0.1075,0.1108,0.1146,0.1155,0.1203,0.114,0.1234,0.1236,0.1205,0.125,0.1132,0.1178,0.1265,0.1268,0.1269,0,0.1064,0.1059,0.1079,0.1072,0.1076,0.1085,0.114,0.1134,0.1155,0.1176,0.1223,0.1218,0.1249,0.1246,0.1305,0.1283,0.1313,0.1316,0.1318,0.1278,0.1205,0.1175,0.12,0.1293,0.1291,0.1289,0.1288,0,0.1036,0.1058,0.1089,0.1104,0.1085,0.1128,0.1151,0.1173,0.1172,0.1274,0.1312,0.1328,0.1376,0.1418,0.1406,0.1405,0.148,0.1462,0.142,0.1413,0.1339,0.1321,0.1547,0.1546,0.1546,0.1546,0.1546,0,0.0988,0.1006,0.1107,0.1104,0.1142,0.1151,0.1196,0.1234,0.1281,0.1273,0.1368,0.1377,0.1446,0.1467,0.1463,0.147,0.1521,0.1463,0.1447,0.1337,0.1319,0.1443,0.143,0.1549,0.1548,0.1548,0.1547,0,0.0916,0.0961,0.1009,0.1088,0.1113,0.1171,0.1218,0.1232,0.1312,0.1359,0.1391,0.1448,0.1502,0.1514,0.157,0.1538,0.1538,0.1522,0.1368,0.1335,0.1431,0.1418,0.1538,0.1537,0.1536,0.1536,0.1535,0,0.0865,0.089,0.1043,0.1074,0.1128,0.1205,0.1201,0.1249,0.1264,0.1349,0.134,0.145,0.1472,0.1521,0.1483,0.1487,0.1517,0.1389,0.1367,0.1469,0.1441,0.1429,0.1418,0.1262,0.1259,0.1257,0.1255,0,0.0783,0.0889,0.0949,0.1043,0.1093,0.1126,0.1169,0.116,0.1195,0.1249,0.1283,0.1344,0.1414,0.1374,0.1399,0.1365,0.1385,0.1345,0.1519,0.1273,0.1211,0.1182,0.118,0.1234,0.1236,0.1238,0.1239,0.124,0.0778,0.0832,0.0917,0.1009,0.1062,0.1058,0.1047,0.1061,0.1058,0.1112,0.1168,0.124,0.125,0.1247,0.1201,0.1187,0.1278,0.1243,0.125,0.1259,0.1207,0.1146,0.1145,0.1147,0.1148,0.1149,0.115,0,0.0738,0.0768,0.0839,0.091,0.0941,0.1005,0.0988,0.095,0.0945,0.1005,0.1062,0.0997,0.1014,0.105,0.0996,0.1002,0.0985,0.0985,0.0956,0.0977,0.0995,0.0929,0.0794,0.0794,0.0793,0.0792,0,0,0.0681,0.0694,0.0737,0.0755,0.0836,0.0818,0.0818,0.0806,0.0804,0.0814,0.0852,0.0943,0.0995,0.0859,0.0848,0.0824,0.0893,0.0797,0.1078,0.1062,0.1079,0.1137,0.1057,0,0,0,0,0]},{"header":{"parameterUnit":"m.s-1","parameterCategory":2,"la1":30.2991,"la2":30.254,"lo1":-89.0895,"lo2":-89.0444,"dy":0.0017,"dx":0.0017,"nx":28,"ny":28,"refTime":"2024-04-20T21:00:00:Z","depth":"2","parameterNumber":3,"parameterNumberName":"V-component_of_CURRENTS"},"data":[0,0,0,0,0,0,0,0,0,0,0,0,0,0,0,0,0,0,0,0,0,0,0,0,0,0,0,0,0,0,0,0,0,0,0,0,0,0,0,0,0,0,0,0,0,0,0,0,0,0,0,0,0,0,0,0,0,0,0.0317,0.0315,0,0.0109,0.0106,0.0103,0.0053,0.0055,0.0056,0.0058,0.0,-0.0003,-0.0006,0,0,0,0,0,0,0,0,0,0,0,0,0,0.0441,0.044,0.0317,0.0315,0.0312,0.0109,0.0106,0.0103,0.0052,0.0055,0.0057,0.0059,0.0001,-0.0002,-0.0006,0,0,0,0,0,0,0,0,0,0,0,0,0,0.0322,0.044,0.0317,0.0266,0.0259,0.011,0.0106,0.0102,0.0052,0.0055,0.0057,0.006,0.0002,-0.0002,-0.0007,-0.0088,0,0,-0.0021,-0.0023,0,0,0,0,0,0,0,0,0.0329,0.0317,0.0276,0.0269,0.0262,0.0113,0.0128,0.0047,0.0051,0.0127,0.0058,0.0061,0.0052,0.0044,-0.0009,-0.009,-0.0093,-0.0022,-0.0024,-0.0026,-0.0028,0,0,0,0,0,0,0,0.0338,0.0325,0.0231,0.0273,0.0264,0.0174,0.0162,0.0111,0.0078,0.012,0.0117,0.0099,0.005,-0.0004,-0.001,-0.0094,-0.0021,-0.0026,-0.0029,-0.003,-0.0155,-0.0156,0,0,0,0,0,0,0.038,0.0334,0.0237,0.0225,0.0307,0.0171,0.0157,0.0155,0.0075,0.0065,0.0097,0.0098,0.0002,-0.0004,-0.0012,-0.0043,-0.0026,-0.0031,-0.0034,-0.0155,-0.0155,-0.0156,0,0,0,0,0,0,0.0384,0.0374,0.0246,0.0276,0.0255,0.0169,0.0165,0.0149,0.0141,0.0056,0.0049,0.0112,0.0004,-0.0005,-0.0035,-0.0047,-0.0033,-0.0037,-0.0154,-0.0155,-0.0156,-0.0149,0,0,0,0,0,0,0.0389,0.0377,0.0365,0.028,0.0255,0.0188,0.0162,0.0144,0.0125,0.0125,0.0065,0.0059,0.0005,-0.0027,-0.0039,-0.0053,-0.0041,-0.0154,-0.0155,-0.0156,-0.0148,-0.0149,-0.015,0,0,0,0,0,0.0394,0.036,0.0366,0.0353,0.025,0.0188,0.0166,0.0109,0.0125,0.0114,0.0075,0.0063,-0.0041,-0.0032,-0.0046,-0.0062,-0.0153,-0.0154,-0.0155,-0.0148,-0.0149,-0.015,0,0,0,0,0,0,0.0395,0.0349,0.0354,0.0308,0.0275,0.0182,0.0142,0.0137,0.0089,0.0095,0.0048,0.0037,-0.0002,-0.0024,-0.0012,-0.0098,-0.0096,-0.01,-0.0085,-0.0087,-0.0087,-0.0046,-0.0045,0,0,0,0,0,0.0398,0.0379,0.0331,0.0305,0.0287,0.0234,0.0198,0.0176,0.0129,0.0112,0.0082,0.0037,-0.0031,-0.0044,-0.0106,-0.0146,-0.0154,-0.0161,-0.0161,-0.0162,-0.0137,-0.0139,-0.0137,-0.016,-0.016,-0.016,0,0,0.0409,0.0367,0.0367,0.0306,0.0268,0.0227,0.0219,0.018,0.0147,0.0113,0.0072,0.0032,-0.0043,-0.0108,-0.0123,-0.0116,-0.0173,-0.0163,-0.0163,-0.0137,-0.014,-0.0138,-0.0136,-0.016,-0.016,-0.016,0,0,0.0379,0.0377,0.0338,0.0317,0.0264,0.0229,0.0244,0.019,0.0167,0.0119,0.0078,0.005,-0.0036,-0.0095,-0.0141,-0.0171,-0.0184,-0.0183,-0.0149,-0.0153,-0.015,-0.0148,-0.0209,-0.0212,-0.0175,-0.0175,-0.0175,0,0.0378,0.0345,0.0319,0.0269,0.0259,0.0251,0.0226,0.0175,0.0126,0.0104,0.0118,0.0004,-0.0042,-0.0129,-0.0139,-0.0174,-0.0182,-0.0144,-0.0151,-0.0149,-0.0147,-0.0209,-0.0212,-0.0175,-0.0175,-0.0175,-0.0175,0,0.0327,0.0306,0.0287,0.0241,0.0214,0.0207,0.0159,0.015,0.0145,0.0091,0.004,-0.0018,-0.007,-0.0099,-0.0133,-0.015,-0.0169,-0.016,-0.0144,-0.0144,-0.0211,-0.0214,-0.0174,-0.0174,-0.0174,-0.0174,0,0,0.0304,0.0265,0.0267,0.0253,0.0223,0.0194,0.0158,0.0109,0.0104,0.0048,0.0033,-0.0076,-0.0064,-0.0108,-0.0136,-0.0126,-0.0142,-0.0113,-0.0114,-0.0166,-0.0177,-0.0204,-0.0212,-0.0115,-0.0114,-0.0113,-0.025,0,0.0281,0.0232,0.0215,0.0188,0.0159,0.0169,0.0115,0.0067,0.0073,0.0053,-0.0017,-0.0054,-0.0089,-0.0074,-0.0084,-0.0125,-0.014,-0.0107,-0.0175,-0.0178,-0.0194,-0.0212,-0.0164,-0.0279,-0.0253,-0.0254,-0.0254,0,0.022,0.0197,0.0194,0.0152,0.0143,0.014,0.0146,0.0099,0.005,0.0051,0.0038,0.0003,-0.0047,-0.0024,-0.0115,-0.0084,-0.0117,-0.0142,-0.0148,-0.0163,-0.0209,-0.0266,-0.0287,-0.026,-0.026,-0.0259,-0.0259,0,0.0189,0.0169,0.0191,0.0193,0.0143,0.0161,0.0144,0.0111,0.0079,0.0105,0.0132,0.0042,0.0033,-0.002,-0.012,-0.0087,-0.02,-0.0179,-0.0256,-0.0263,-0.023,-0.0233,-0.0204,-0.0204,-0.0203,-0.0203,-0.0203,0,0.0135,0.013,0.0206,0.0198,0.0203,0.0164,0.017,0.017,0.0158,0.0127,0.0149,0.0143,0.0059,-0.0034,-0.0113,-0.0234,-0.0224,-0.025,-0.0283,-0.0235,-0.0236,-0.0206,-0.0205,-0.0208,-0.0207,-0.0206,-0.0205,0,0.0068,0.0106,0.0131,0.0174,0.0181,0.0199,0.0187,0.0174,0.0205,0.0217,0.0225,0.019,0.0103,-0.0028,-0.0141,-0.0226,-0.0333,-0.0374,-0.0348,-0.0372,-0.0394,-0.0391,-0.0448,-0.045,-0.0451,-0.0453,-0.0454,0,0.0033,0.0044,0.0168,0.0195,0.0236,0.0251,0.0218,0.0201,0.0206,0.0226,0.0214,0.0174,0.0142,-0.0074,-0.022,-0.0388,-0.0394,-0.0456,-0.0365,-0.0385,-0.0412,-0.0406,-0.0401,-0.0357,-0.0357,-0.0357,-0.0357,0,-0.0028,0.007,0.0117,0.0201,0.0233,0.0237,0.0232,0.0231,0.0203,0.0255,0.0267,0.0268,0.0114,-0.003,-0.0245,-0.0348,-0.0422,-0.0461,-0.0486,-0.0291,-0.0306,-0.033,-0.0326,-0.0359,-0.0358,-0.0358,-0.0358,-0.0358,-0.0012,0.004,0.0134,0.0206,0.0238,0.025,0.0248,0.0255,0.0259,0.0338,0.0283,0.0325,0.0142,-0.0081,-0.0254,-0.0411,-0.0408,-0.0447,-0.0444,-0.0441,-0.0394,-0.0408,-0.0476,-0.0477,-0.0477,-0.0478,-0.0478,0,-0.0009,0.0025,0.0098,0.0182,0.0225,0.025,0.0247,0.026,0.0316,0.0366,0.0413,0.029,0.0158,-0.0028,-0.0236,-0.0379,-0.0352,-0.0423,-0.0353,-0.0352,-0.0352,-0.0296,-0.0356,-0.0355,-0.0355,-0.0355,0,0,-0.0027,0.0018,0.006,0.0137,0.0212,0.0237,0.0258,0.0326,0.0355,0.0443,0.0467,0.0424,0.019,0.0052,-0.0141,-0.0236,-0.0253,-0.025,-0.0338,-0.0232,-0.0229,-0.0364,-0.0278,0,0,0,0,0]}],[{"header":{"parameterUnit":"m.s-1","parameterCategory":2,"la1":30.2991,"la2":30.254,"lo1":-89.0895,"lo2":-89.0444,"dy":0.0017,"dx":0.0017,"nx":28,"ny":28,"refTime":"2024-04-20T21:00:00:Z","depth":"4","parameterNumber":2,"parameterNumberName":"U-component_of_CURRENTS"},"data":[0,0,0,0,0,0,0,0,0,0,0,0,0,0,0,0,0,0,0,0,0,0,0,0,0,0,0,0,0,0,0,0,0,0,0,0,0,0,0,0,0,0,0,0,0,0,0,0,0,0,0,0,0,0,0,0,0,0,0.0246,0.0246,0,0.0272,0.0272,0.0273,0.0308,0.0309,0.031,0.031,0.0333,0.0333,0.0333,0,0,0,0,0,0,0,0,0,0,0,0,0,0.0235,0.0234,0.0246,0.0246,0.0247,0.0272,0.0272,0.0273,0.0308,0.0309,0.031,0.0311,0.0333,0.0333,0.0333,0,0,0,0,0,0,0,0,0,0,0,0,0,0.0246,0.0234,0.0246,0.0269,0.0271,0.0272,0.0272,0.0273,0.0308,0.0309,0.031,0.0311,0.0333,0.0333,0.0333,0.0309,0,0,0.0332,0.0332,0,0,0,0,0,0,0,0,0.0246,0.0246,0.0265,0.0267,0.027,0.029,0.0277,0.0285,0.0308,0.0292,0.031,0.0312,0.0318,0.032,0.032,0.031,0.0311,0.0332,0.0332,0.0332,0.0332,0,0,0,0,0,0,0,0.0245,0.0246,0.0255,0.0266,0.0269,0.0281,0.0284,0.0279,0.0297,0.0294,0.0297,0.0302,0.032,0.032,0.032,0.0311,0.0332,0.0332,0.0332,0.0332,0.0309,0.0309,0,0,0,0,0,0,0.0243,0.0245,0.0254,0.0256,0.0262,0.028,0.0283,0.0281,0.0297,0.0302,0.0301,0.0304,0.0319,0.032,0.0321,0.0311,0.0332,0.0332,0.0332,0.031,0.0309,0.0308,0,0,0,0,0,0,0.0243,0.0243,0.0253,0.0253,0.0255,0.0279,0.0276,0.0281,0.0297,0.0303,0.0307,0.0315,0.032,0.0321,0.0327,0.0312,0.0332,0.0332,0.031,0.0309,0.0309,0.028,0,0,0,0,0,0,0.0242,0.0243,0.0246,0.0252,0.0255,0.0262,0.0276,0.0281,0.0298,0.0302,0.0316,0.0319,0.0321,0.0327,0.0327,0.0312,0.0332,0.0311,0.031,0.0309,0.0282,0.0278,0.0275,0,0,0,0,0,0.0241,0.024,0.0246,0.0248,0.0257,0.0263,0.0265,0.0285,0.0298,0.0304,0.0313,0.0319,0.0321,0.0327,0.0326,0.0311,0.0311,0.031,0.0309,0.0283,0.0279,0.0276,0,0,0,0,0,0,0.0241,0.0243,0.0251,0.0252,0.0262,0.027,0.0283,0.029,0.03,0.0311,0.0315,0.0317,0.0316,0.0318,0.0324,0.0302,0.0316,0.0314,0.0296,0.0292,0.0289,0.0298,0.0331,0,0,0,0,0,0.0241,0.0239,0.0246,0.025,0.0258,0.0271,0.0279,0.029,0.0299,0.0306,0.0308,0.0311,0.0306,0.0306,0.0305,0.0292,0.0307,0.0282,0.0278,0.0276,0.0283,0.0287,0.0285,0.0305,0.0305,0.0305,0,0,0.0242,0.0244,0.0244,0.025,0.0263,0.0271,0.0279,0.0296,0.0297,0.0305,0.0308,0.0304,0.0302,0.029,0.0288,0.0292,0.0278,0.0274,0.0272,0.0281,0.0285,0.0284,0.0282,0.0304,0.0304,0.0304,0,0,0.0242,0.0249,0.0249,0.0257,0.0276,0.0282,0.0288,0.0297,0.0301,0.0296,0.0301,0.0294,0.0283,0.0277,0.0272,0.0253,0.0265,0.0245,0.0232,0.0235,0.0233,0.0232,0.025,0.0251,0.0239,0.0239,0.0239,0,0.0249,0.0246,0.0252,0.0258,0.027,0.0287,0.0296,0.0296,0.0301,0.0298,0.0299,0.0277,0.0277,0.0258,0.0248,0.0247,0.0254,0.0244,0.0231,0.0231,0.023,0.0249,0.025,0.0237,0.0237,0.0237,0.0238,0,0.0246,0.0252,0.0258,0.0268,0.0279,0.0292,0.0298,0.0301,0.0302,0.0295,0.0278,0.0265,0.0256,0.0241,0.0237,0.0222,0.0232,0.023,0.0241,0.0226,0.0247,0.0249,0.0235,0.0235,0.0236,0.0236,0,0,0.0243,0.0253,0.0256,0.0267,0.0289,0.0296,0.0301,0.0303,0.0306,0.0287,0.0279,0.0248,0.0241,0.0236,0.0221,0.0211,0.0211,0.0213,0.0214,0.0234,0.0226,0.0249,0.0254,0.0201,0.0202,0.0202,0.0243,0,0.0245,0.0247,0.0257,0.0274,0.0282,0.0302,0.0305,0.0308,0.0303,0.0298,0.0272,0.0261,0.0238,0.0231,0.0215,0.0221,0.0214,0.0201,0.0237,0.0238,0.0262,0.0256,0.0202,0.0244,0.0245,0.0245,0.0246,0,0.0242,0.0243,0.0248,0.0274,0.0283,0.0298,0.0315,0.0317,0.0313,0.0306,0.0286,0.0276,0.026,0.0242,0.0237,0.0228,0.0226,0.0222,0.0223,0.0259,0.0265,0.0262,0.0249,0.0249,0.0249,0.0248,0.0248,0,0.0223,0.0244,0.0244,0.0253,0.0277,0.0293,0.0313,0.0319,0.0323,0.0315,0.0322,0.0295,0.0301,0.028,0.0281,0.0258,0.0287,0.026,0.0276,0.0278,0.0258,0.0259,0.0254,0.0254,0.0254,0.0253,0.0253,0,0.0217,0.0225,0.0239,0.0239,0.0255,0.0284,0.0303,0.031,0.0331,0.0333,0.0327,0.0325,0.031,0.0325,0.0301,0.0313,0.031,0.0282,0.0289,0.0245,0.0244,0.026,0.026,0.0255,0.0255,0.0254,0.0254,0,0.02,0.0204,0.0203,0.0227,0.0241,0.025,0.0306,0.0311,0.0343,0.035,0.0352,0.0369,0.0385,0.0386,0.038,0.0361,0.0354,0.0357,0.0336,0.0341,0.0334,0.0332,0.0367,0.0368,0.0369,0.037,0.037,0,0.0193,0.0187,0.0185,0.0182,0.0199,0.0228,0.0244,0.0294,0.0304,0.0363,0.0359,0.0406,0.0406,0.0436,0.0424,0.0419,0.0401,0.0408,0.0334,0.0341,0.0345,0.0341,0.0338,0.0372,0.0372,0.0372,0.0373,0,0.0186,0.0175,0.0167,0.0151,0.0162,0.0178,0.0216,0.0236,0.0288,0.0324,0.0367,0.0393,0.0429,0.0433,0.0464,0.0437,0.0405,0.0417,0.0413,0.0343,0.0348,0.035,0.0345,0.0376,0.0376,0.0375,0.0375,0,0.018,0.0166,0.0144,0.0133,0.013,0.0135,0.0162,0.0206,0.0243,0.0323,0.0331,0.0383,0.0421,0.0443,0.0449,0.0462,0.0427,0.0395,0.0391,0.0388,0.0374,0.0382,0.0433,0,0,0,0,0,0.0187,0.0169,0.0142,0.012,0.0106,0.0116,0.0144,0.0174,0.0237,0.0261,0.031,0.0338,0.0385,0.0407,0.0418,0.0433,0.0415,0.0444,0.0371,0.0395,0.0391,0.0373,0,0,0,0,0,0,0.0186,0.0169,0.0139,0.0111,0.01,0.0098,0.0117,0.0153,0.0183,0.0247,0.0273,0.0324,0.0366,0.0381,0.0415,0.0422,0.0371,0.0479,0.0479,0.0397,0.0393,0.039,0.037,0,0,0,0,0]},{"header":{"parameterUnit":"m.s-1","parameterCategory":2,"la1":30.2991,"la2":30.254,"lo1":-89.0895,"lo2":-89.0444,"dy":0.0017,"dx":0.0017,"nx":28,"ny":28,"refTime":"2024-04-20T21:00:00:Z","depth":"4","parameterNumber":3,"parameterNumberName":"V-component_of_CURRENTS"},"data":[0,0,0,0,0,0,0,0,0,0,0,0,0,0,0,0,0,0,0,0,0,0,0,0,0,0,0,0,0,0,0,0,0,0,0,0,0,0,0,0,0,0,0,0,0,0,0,0,0,0,0,0,0,0,0,0,0,0,-0.0294,-0.0294,0,-0.0325,-0.0325,-0.0325,-0.0376,-0.0377,-0.0378,-0.0379,-0.0456,-0.0457,-0.0458,0,0,0,0,0,0,0,0,0,0,0,0,0,-0.0238,-0.0239,-0.0294,-0.0294,-0.0295,-0.0325,-0.0325,-0.0325,-0.0375,-0.0377,-0.0378,-0.038,-0.0456,-0.0457,-0.0458,0,0,0,0,0,0,0,0,0,0,0,0,0,-0.0262,-0.0239,-0.0294,-0.0326,-0.033,-0.0325,-0.0325,-0.0325,-0.0375,-0.0377,-0.0379,-0.0381,-0.0455,-0.0457,-0.0458,-0.0429,0,0,-0.0462,-0.0463,0,0,0,0,0,0,0,0,-0.026,-0.0263,-0.0321,-0.0324,-0.0328,-0.0351,-0.0334,-0.0363,-0.0375,-0.0354,-0.0379,-0.0381,-0.0426,-0.043,-0.0426,-0.0432,-0.0435,-0.0462,-0.0463,-0.0463,-0.0464,0,0,0,0,0,0,0,-0.0259,-0.0262,-0.0302,-0.0322,-0.0326,-0.0326,-0.0332,-0.0339,-0.0377,-0.0356,-0.0361,-0.0369,-0.0428,-0.0424,-0.0428,-0.0437,-0.0462,-0.0463,-0.0464,-0.0465,-0.0521,-0.0522,0,0,0,0,0,0,-0.0262,-0.0261,-0.0302,-0.0304,-0.0302,-0.0326,-0.0332,-0.0339,-0.0376,-0.0385,-0.0368,-0.0372,-0.0421,-0.0427,-0.0431,-0.0485,-0.0463,-0.0465,-0.0465,-0.0521,-0.0522,-0.0522,0,0,0,0,0,0,-0.0261,-0.0265,-0.03,-0.0286,-0.0291,-0.0326,-0.0333,-0.0339,-0.0373,-0.0385,-0.0394,-0.0401,-0.0423,-0.043,-0.0469,-0.0485,-0.0465,-0.0467,-0.052,-0.0521,-0.0522,-0.0537,0,0,0,0,0,0,-0.0259,-0.0264,-0.0279,-0.0286,-0.0292,-0.0315,-0.0332,-0.0338,-0.0375,-0.0381,-0.0416,-0.0423,-0.0425,-0.0467,-0.047,-0.0487,-0.0468,-0.0519,-0.052,-0.0522,-0.0535,-0.0538,-0.0541,0,0,0,0,0,-0.0257,-0.0263,-0.028,-0.0285,-0.0308,-0.0316,-0.0319,-0.0347,-0.0375,-0.0386,-0.0418,-0.0424,-0.0478,-0.0469,-0.0472,-0.0489,-0.0518,-0.052,-0.0522,-0.0534,-0.0538,-0.054,0,0,0,0,0,0,-0.0252,-0.027,-0.0288,-0.0303,-0.032,-0.0327,-0.0347,-0.0364,-0.0395,-0.042,-0.0431,-0.0439,-0.0481,-0.0482,-0.0472,-0.051,-0.0499,-0.0502,-0.0508,-0.0511,-0.0514,-0.0505,-0.0469,0,0,0,0,0,-0.0256,-0.0269,-0.0285,-0.0302,-0.0316,-0.0338,-0.0352,-0.0373,-0.0396,-0.0414,-0.0444,-0.0471,-0.0481,-0.0497,-0.0513,-0.053,-0.0519,-0.0545,-0.0547,-0.0549,-0.0545,-0.0544,-0.0545,-0.0528,-0.0528,-0.0528,0,0,-0.026,-0.0274,-0.0283,-0.0303,-0.0324,-0.0335,-0.0352,-0.0385,-0.0404,-0.0416,-0.0472,-0.0488,-0.049,-0.0514,-0.0532,-0.0523,-0.0548,-0.0551,-0.0553,-0.0547,-0.0545,-0.0547,-0.0548,-0.0529,-0.0529,-0.0528,0,0,-0.0263,-0.0291,-0.03,-0.0313,-0.0349,-0.0358,-0.0376,-0.041,-0.0442,-0.0478,-0.0495,-0.0527,-0.0551,-0.0555,-0.0554,-0.058,-0.0566,-0.0588,-0.059,-0.0589,-0.059,-0.0591,-0.0574,-0.0573,-0.0585,-0.0585,-0.0585,0,-0.0269,-0.0283,-0.0304,-0.0315,-0.0334,-0.0373,-0.0387,-0.0411,-0.0458,-0.0483,-0.0506,-0.0551,-0.0566,-0.0571,-0.0579,-0.0587,-0.0574,-0.0576,-0.0591,-0.0592,-0.0592,-0.0575,-0.0574,-0.0585,-0.0585,-0.0585,-0.0585,0,-0.0273,-0.029,-0.0301,-0.0326,-0.0345,-0.0369,-0.0402,-0.0442,-0.049,-0.0511,-0.0562,-0.058,-0.0598,-0.0611,-0.0599,-0.0609,-0.0594,-0.0597,-0.058,-0.0595,-0.0576,-0.0575,-0.0587,-0.0586,-0.0586,-0.0586,0,0,-0.0268,-0.0296,-0.0302,-0.0315,-0.0358,-0.0369,-0.0413,-0.0449,-0.0479,-0.0536,-0.0565,-0.0594,-0.0613,-0.0613,-0.0616,-0.0616,-0.0611,-0.0603,-0.0603,-0.058,-0.0591,-0.0542,-0.0535,-0.0612,-0.0612,-0.0612,-0.0574,0,-0.027,-0.028,-0.0301,-0.0322,-0.0333,-0.0379,-0.0409,-0.0452,-0.0496,-0.0534,-0.057,-0.0592,-0.0609,-0.0612,-0.0621,-0.0611,-0.0608,-0.062,-0.0585,-0.0584,-0.0533,-0.0533,-0.0612,-0.0573,-0.0573,-0.0573,-0.0572,0,-0.0271,-0.0275,-0.029,-0.032,-0.0333,-0.0357,-0.0415,-0.0443,-0.0498,-0.0529,-0.0563,-0.0582,-0.0593,-0.0605,-0.0604,-0.0607,-0.0599,-0.0596,-0.0594,-0.054,-0.0532,-0.0557,-0.057,-0.057,-0.057,-0.057,-0.057,0,-0.0252,-0.0271,-0.0282,-0.0292,-0.0329,-0.0363,-0.0397,-0.0454,-0.0473,-0.0518,-0.052,-0.0559,-0.0554,-0.057,-0.0563,-0.0578,-0.0552,-0.0574,-0.0525,-0.0521,-0.057,-0.057,-0.0572,-0.0572,-0.0572,-0.0572,-0.0573,0,-0.0247,-0.0254,-0.0277,-0.0286,-0.0307,-0.0352,-0.0389,-0.0425,-0.0465,-0.0463,-0.051,-0.0496,-0.0541,-0.0532,-0.0548,-0.0519,-0.0539,-0.0517,-0.0508,-0.0577,-0.0578,-0.0568,-0.0569,-0.0571,-0.0571,-0.0572,-0.0572,0,-0.0234,-0.0245,-0.0251,-0.0288,-0.0298,-0.0322,-0.0368,-0.0385,-0.0423,-0.0415,-0.0415,-0.0434,-0.0417,-0.045,-0.0455,-0.0472,-0.0468,-0.0452,-0.0503,-0.0498,-0.0445,-0.0447,-0.0404,-0.0402,-0.04,-0.0399,-0.0397,0,-0.0228,-0.0229,-0.0244,-0.0244,-0.0269,-0.0301,-0.0317,-0.0362,-0.0363,-0.0362,-0.034,-0.0327,-0.0336,-0.0308,-0.0357,-0.0381,-0.0388,-0.039,-0.0445,-0.0433,-0.0428,-0.0432,-0.0436,-0.0395,-0.0394,-0.0394,-0.0393,0,-0.0212,-0.0222,-0.0229,-0.0226,-0.0239,-0.0242,-0.0268,-0.0256,-0.0282,-0.0292,-0.025,-0.0254,-0.023,-0.0261,-0.0269,-0.0296,-0.0399,-0.0372,-0.0377,-0.0429,-0.0421,-0.0419,-0.0425,-0.0387,-0.0388,-0.0389,-0.0389,0,-0.0201,-0.0201,-0.0207,-0.0209,-0.021,-0.0202,-0.0216,-0.0208,-0.0207,-0.0201,-0.0174,-0.0182,-0.0191,-0.0212,-0.0223,-0.024,-0.0264,-0.029,-0.03,-0.0307,-0.03,-0.0277,-0.0181,0,0,0,0,0,-0.0182,-0.0181,-0.0184,-0.0188,-0.0191,-0.0189,-0.0184,-0.0195,-0.0191,-0.0143,-0.0164,-0.014,-0.0153,-0.0168,-0.0174,-0.0212,-0.0282,-0.0221,-0.0321,-0.0353,-0.036,-0.0366,0,0,0,0,0,0,-0.0168,-0.0168,-0.0177,-0.0172,-0.0169,-0.0168,-0.0161,-0.0157,-0.0138,-0.013,-0.0133,-0.0138,-0.0154,-0.0141,-0.017,-0.0178,-0.0242,-0.0232,-0.0232,-0.0349,-0.0356,-0.0361,-0.0369,0,0,0,0,0]}]]